| time (UTC) | temp F | wind direction | speed knots | gust knots | rain 1hr in | rain 24hr in | rain mn in | humidity % | barometer mb |
| 20260508114556 | 56 | 49 | 0.0 | 0.0 | 0.00 | 0.00 | 0.00 | 72 | 1010.0 |
| 20260508113058 | 57 | 49 | 0.0 | 2.6 | 0.00 | 0.00 | 0.00 | 69 | 1009.6 |
| 20260508111600 | 58 | 345 | 0.9 | 3.5 | 0.00 | 0.00 | 0.00 | 66 | 1009.8 |
| 20260508104554 | 58 | 194 | 2.6 | 7.8 | 0.00 | 0.00 | 0.00 | 64 | 1009.1 |
| 20260508103120 | 58 | 194 | 0.9 | 5.2 | 0.00 | 0.00 | 0.00 | 65 | 1009.0 |
| 20260508101609 | 57 | 159 | 1.7 | 6.1 | 0.00 | 0.00 | 0.00 | 66 | 1008.9 |
| 20260508100052 | 56 | 211 | 1.7 | 3.5 | 0.00 | 0.00 | 0.00 | 69 | 1009.0 |
| 20260508094606 | 56 | 78 | 0.0 | 2.6 | 0.00 | 0.00 | 0.00 | 69 | 1009.0 |
| 20260508093051 | 56 | 101 | 0.9 | 2.6 | 0.00 | 0.00 | 0.00 | 69 | 1009.0 |
| 20260508091550 | 55 | 31 | 0.0 | 1.7 | 0.00 | 0.00 | 0.00 | 70 | 1009.2 |
| 20260508090059 | 55 | 46 | 0.0 | 4.3 | 0.00 | 0.00 | 0.00 | 71 | 1009.1 |
| 20260508084548 | 55 | 14 | 1.7 | 3.5 | 0.00 | 0.00 | 0.00 | 70 | 1009.1 |
| 20260508083100 | 56 | 43 | 1.7 | 5.2 | 0.00 | 0.00 | 0.00 | 67 | 1009.1 |
| 20260508081544 | 57 | 179 | 0.0 | 4.3 | 0.00 | 0.00 | 0.00 | 66 | 1009.3 |
| 20260508080046 | 57 | 180 | 2.6 | 7.0 | 0.00 | 0.00 | 0.00 | 66 | 1009.2 |
| 20260508074541 | 57 | 204 | 4.3 | 10.4 | 0.00 | 0.00 | 0.00 | 65 | 1009.5 |
| 20260508073037 | 57 | 197 | 1.7 | 4.3 | 0.00 | 0.00 | 0.00 | 65 | 1009.8 |
| 20260508071535 | 57 | 166 | 1.7 | 6.1 | 0.00 | 0.00 | 0.00 | 64 | 1010.0 |
| 20260508070032 | 58 | 204 | 1.7 | 6.1 | 0.00 | 0.00 | 0.00 | 63 | 1010.1 |
| 20260508064538 | 58 | 214 | 1.7 | 9.6 | 0.00 | 0.00 | 0.00 | 62 | 1010.3 |
| 20260508063029 | 59 | 225 | 4.3 | 12.2 | 0.00 | 0.00 | 0.00 | 62 | 1010.5 |
| 20260508061524 | 59 | 181 | 3.5 | 12.2 | 0.00 | 0.00 | 0.00 | 61 | 1010.7 |
| 20260508060022 | 60 | 197 | 7.0 | 13.0 | 0.00 | 0.00 | 0.00 | 60 | 1010.7 |
| 20260508054519 | 60 | 233 | 5.2 | 13.0 | 0.00 | 0.00 | 0.00 | 60 | 1010.7 |
| 20260508053022 | 60 | 176 | 6.1 | 13.0 | 0.00 | 0.00 | 0.00 | 59 | 1010.6 |
| 20260508051514 | 60 | 157 | 5.2 | 13.0 | 0.00 | 0.00 | 0.00 | 59 | 1010.7 |
| 20260508050019 | 61 | 143 | 3.5 | 14.8 | 0.00 | 0.00 | 0.00 | 58 | 1010.7 |
| 20260508044510 | 61 | 226 | 6.1 | 10.4 | 0.00 | 0.00 | 0.00 | 57 | 1010.8 |
| 20260508043010 | 61 | 178 | 8.7 | 14.8 | 0.00 | 0.00 | 0.00 | 57 | 1010.8 |
| 20260508041510 | 62 | 224 | 5.2 | 14.8 | 0.00 | 0.00 | 0.00 | 56 | 1010.9 |
| 20260508040017 | 62 | 185 | 5.2 | 10.4 | 0.00 | 0.00 | 0.00 | 56 | 1010.9 |
| 20260508034509 | 62 | 191 | 4.3 | 12.2 | 0.00 | 0.00 | 0.00 | 55 | 1010.8 |
| 20260508033008 | 62 | 201 | 5.2 | 12.2 | 0.00 | 0.00 | 0.00 | 55 | 1010.9 |
| 20260508031508 | 63 | 207 | 5.2 | 8.7 | 0.00 | 0.00 | 0.00 | 55 | 1010.9 |
| 20260508030007 | 63 | 204 | 4.3 | 9.6 | 0.00 | 0.00 | 0.00 | 54 | 1010.7 |
| 20260508024507 | 64 | 196 | 5.2 | 13.0 | 0.00 | 0.00 | 0.00 | 53 | 1010.5 |
| 20260508023019 | 64 | 212 | 2.6 | 10.4 | 0.00 | 0.00 | 0.00 | 52 | 1010.4 |
| 20260508021511 | 64 | 139 | 5.2 | 8.7 | 0.00 | 0.00 | 0.00 | 52 | 1010.2 |
| 20260508020005 | 65 | 158 | 3.5 | 7.0 | 0.00 | 0.00 | 0.00 | 51 | 1010.1 |
| 20260508014517 | 66 | 169 | 3.5 | 7.0 | 0.00 | 0.00 | 0.00 | 49 | 1009.9 |
| 20260508013005 | 66 | 182 | 3.5 | 7.8 | 0.00 | 0.00 | 0.00 | 48 | 1009.9 |
| 20260508011505 | 67 | 178 | 5.2 | 9.6 | 0.00 | 0.00 | 0.00 | 47 | 1009.9 |
| 20260508010004 | 68 | 192 | 5.2 | 9.6 | 0.00 | 0.00 | 0.00 | 46 | 1009.9 |
| 20260508004513 | 68 | 141 | 5.2 | 8.7 | 0.00 | 0.00 | 0.00 | 45 | 1009.9 |
| 20260508003012 | 69 | 207 | 4.3 | 10.4 | 0.00 | 0.00 | 0.00 | 44 | 1009.8 |
| 20260508001502 | 69 | 177 | 5.2 | 13.0 | 0.00 | 0.00 | 0.00 | 43 | 1009.9 |
| 20260508000000 | 70 | 144 | 5.2 | 13.9 | 0.00 | 0.00 | 0.00 | 42 | 1010.0 |
| 20260507234601 | 70 | 194 | 4.3 | 10.4 | 0.00 | 0.00 | 0.00 | 42 | 1010.1 |
| 20260507233058 | 70 | 174 | 7.0 | 13.9 | 0.00 | 0.00 | 0.00 | 40 | 1010.3 |
| 20260507231557 | 71 | 209 | 4.3 | 10.4 | 0.00 | 0.00 | 0.00 | 40 | 1010.4 |
| 20260507230057 | 70 | 217 | 5.2 | 12.2 | 0.00 | 0.00 | 0.00 | 40 | 1010.6 |
| 20260507224611 | 70 | 153 | 5.2 | 10.4 | 0.00 | 0.00 | 0.00 | 41 | 1010.7 |
| 20260507223056 | 70 | 232 | 7.0 | 13.0 | 0.00 | 0.00 | 0.00 | 41 | 1010.8 |
| 20260507221548 | 69 | 246 | 4.3 | 17.4 | 0.00 | 0.00 | 0.00 | 43 | 1010.9 |
| 20260507220047 | 69 | 151 | 8.7 | 15.6 | 0.00 | 0.00 | 0.00 | 43 | 1011.0 |
| 20260507214550 | 69 | 222 | 7.8 | 17.4 | 0.00 | 0.00 | 0.00 | 43 | 1011.0 |
| 20260507213045 | 68 | 237 | 11.3 | 19.1 | 0.00 | 0.00 | 0.00 | 43 | 1011.2 |
| 20260507211600 | 69 | 278 | 7.8 | 20.0 | 0.00 | 0.00 | 0.00 | 44 | 1011.3 |
| 20260507210042 | 69 | 144 | 6.1 | 15.6 | 0.00 | 0.00 | 0.00 | 44 | 1011.6 |
| 20260507204538 | 68 | 216 | 8.7 | 16.5 | 0.00 | 0.00 | 0.00 | 44 | 1011.8 |
| 20260507203036 | 68 | 245 | 9.6 | 16.5 | 0.00 | 0.00 | 0.00 | 45 | 1012.1 |
| 20260507201533 | 67 | 164 | 7.8 | 18.2 | 0.00 | 0.00 | 0.00 | 46 | 1012.4 |
| 20260507200029 | 67 | 195 | 11.3 | 19.1 | 0.00 | 0.00 | 0.00 | 47 | 1012.8 |
| 20260507194528 | 66 | 173 | 7.8 | 19.1 | 0.00 | 0.00 | 0.00 | 47 | 1012.9 |
| 20260507193024 | 65 | 180 | 8.7 | 19.1 | 0.00 | 0.00 | 0.00 | 48 | 1013.2 |
| 20260507191522 | 65 | 193 | 8.7 | 20.9 | 0.00 | 0.00 | 0.00 | 49 | 1013.4 |
| 20260507190027 | 65 | 220 | 12.2 | 16.5 | 0.00 | 0.00 | 0.00 | 48 | 1013.4 |
| 20260507184520 | 64 | 205 | 7.8 | 19.1 | 0.00 | 0.00 | 0.00 | 49 | 1013.6 |
| 20260507183022 | 64 | 193 | 6.1 | 20.9 | 0.00 | 0.00 | 0.00 | 50 | 1013.7 |
| 20260507181514 | 64 | 232 | 7.8 | 19.1 | 0.00 | 0.00 | 0.00 | 50 | 1014.0 |
| 20260507180014 | 64 | 217 | 8.7 | 19.1 | 0.00 | 0.00 | 0.00 | 50 | 1014.4 |
| 20260507174510 | 63 | 219 | 7.8 | 13.9 | 0.00 | 0.00 | 0.00 | 50 | 1014.6 |
| 20260507173007 | 62 | 207 | 10.4 | 17.4 | 0.00 | 0.00 | 0.00 | 51 | 1015.0 |
| 20260507171506 | 62 | 286 | 7.8 | 18.2 | 0.00 | 0.00 | 0.00 | 52 | 1015.0 |
| 20260507170003 | 61 | 248 | 7.8 | 15.6 | 0.00 | 0.00 | 0.00 | 52 | 1015.4 |
| 20260507164603 | 61 | 228 | 8.7 | 19.1 | 0.00 | 0.00 | 0.00 | 53 | 1015.6 |
| 20260507163058 | 61 | 233 | 10.4 | 20.0 | 0.00 | 0.00 | 0.00 | 54 | 1015.9 |
| 20260507161559 | 60 | 223 | 10.4 | 20.0 | 0.00 | 0.00 | 0.00 | 53 | 1016.1 |
| 20260507160053 | 59 | 245 | 12.2 | 18.2 | 0.00 | 0.00 | 0.00 | 55 | 1016.1 |
| 20260507154551 | 59 | 245 | 9.6 | 20.9 | 0.00 | 0.00 | 0.00 | 55 | 1016.2 |
| 20260507153054 | 58 | 216 | 9.6 | 20.0 | 0.00 | 0.00 | 0.00 | 57 | 1016.3 |
| 20260507151548 | 58 | 201 | 5.2 | 16.5 | 0.00 | 0.00 | 0.00 | 58 | 1016.4 |
| 20260507150045 | 57 | 207 | 9.6 | 13.9 | 0.00 | 0.00 | 0.00 | 60 | 1016.6 |
| 20260507144542 | 56 | 213 | 7.8 | 15.6 | 0.00 | 0.00 | 0.00 | 61 | 1016.7 |
| 20260507143042 | 56 | 230 | 7.8 | 18.2 | 0.00 | 0.00 | 0.00 | 62 | 1016.9 |
| 20260507141538 | 55 | 174 | 5.2 | 11.3 | 0.00 | 0.00 | 0.00 | 64 | 1016.7 |
| 20260507140042 | 54 | 237 | 3.5 | 10.4 | 0.00 | 0.00 | 0.00 | 66 | 1016.9 |
| 20260507134531 | 53 | 207 | 5.2 | 12.2 | 0.00 | 0.00 | 0.00 | 69 | 1016.9 |
| 20260507133031 | 52 | 231 | 4.3 | 13.0 | 0.00 | 0.00 | 0.00 | 70 | 1016.9 |
| 20260507131536 | 51 | 188 | 4.3 | 12.2 | 0.00 | 0.00 | 0.00 | 70 | 1016.9 |
| 20260507130028 | 50 | 209 | 5.2 | 11.3 | 0.00 | 0.00 | 0.00 | 71 | 1017.0 |
| 20260507124531 | 50 | 198 | 5.2 | 10.4 | 0.00 | 0.00 | 0.00 | 73 | 1017.2 |
| 20260507123028 | 49 | 215 | 3.5 | 12.2 | 0.00 | 0.00 | 0.00 | 74 | 1017.3 |
| 20260507121526 | 47 | 230 | 3.5 | 9.6 | 0.00 | 0.00 | 0.00 | 76 | 1017.3 |
| 20260507120024 | 46 | 176 | 1.7 | 5.2 | 0.00 | 0.00 | 0.00 | 77 | 1017.2 |